KQ4KX Weather Reports


time (UTC)temp
F
wind
direction
speed
knots
gust
knots
rain 1hr
in
rain 24hr
in
rain mn
in
humidity
%
barometer
mb
20260507114334 72 184 1.7 4.3 0.00 0.00 0.00 88 1016.2
20260507113834 72 182 0.9 4.3 0.00 0.00 0.00 88 1016.1
20260507112204 72 182 1.7 4.3 0.00 0.00 0.00 88 1016.1
20260507111705 72 186 0.9 3.5 0.00 0.00 0.00 88 1016.0
20260507111134 72 189 0.9 3.5 0.00 0.00 0.00 88 1015.8
20260507110634 72 187 0.9 3.5 0.00 0.00 0.00 87 1015.9
20260507110134 72 181 0.9 5.2 0.00 0.00 0.00 87 1015.7
20260507105635 72 181 1.7 5.2 0.00 0.00 0.00 87 1016.0
20260507105104 72 181 1.7 5.2 0.00 0.00 0.00 88 1015.9
20260507104034 71 180 0.9 4.3 0.00 0.00 0.00 90 1015.7
20260507103534 70 178 0.9 2.6 0.00 0.00 0.00 91 1015.8
20260507103034 70 169 0.0 2.6 0.00 0.00 0.00 91 1015.6
20260507101934 69 215 0.0 0.9 0.00 0.00 0.00 91 1015.7
20260507101404 70 215 0.0 0.9 0.00 0.00 0.00 90 1015.5
20260507100456 70 210 0.0 1.7 0.00 0.00 0.00 91 1015.4
20260507100335 70 213 0.0 1.7 0.00 0.00 0.00 90 1015.5
20260507095806 70 210 0.0 1.7 0.00 0.00 0.00 91 1015.4
20260507094704 70 191 0.0 0.9 0.00 0.00 0.00 90 1015.2
20260507094204 70 221 0.0 0.9 0.00 0.00 0.00 91 1015.1
20260507093834 70 246 0.0 0.9 0.00 0.00 0.00 93 1015.0
20260507093704 70 227 0.0 0.9 0.00 0.00 0.00 92 1015.0
20260507093207 70 246 0.0 0.9 0.00 0.00 0.00 93 1015.0
20260507092634 69 246 0.0 0.9 0.00 0.00 0.00 93 1014.9
20260507092104 70 246 0.0 0.9 0.00 0.00 0.00 93 1015.0
20260507090743 70 0 0.0 0.0 0.00 0.00 0.00 92 1015.2
20260507090534 70 0 0.0 0.0 0.00 0.00 0.00 92 1015.2
20260507084404 71 0 0.0 0.0 0.00 0.00 0.00 90 1015.2
20260507083404 72 246 0.0 0.9 0.00 0.00 0.00 90 1015.1
20260507082834 72 246 0.0 0.9 0.00 0.00 0.00 89 1014.9
20260507082306 72 246 0.0 0.9 0.00 0.00 0.00 89 1015.0
20260507081234 72 250 0.9 2.6 0.00 0.00 0.00 88 1014.8
20260507080734 72 248 0.9 3.5 0.00 0.00 0.00 88 1014.9
20260507075704 72 242 0.9 3.5 0.00 0.00 0.00 88 1014.9
20260507075204 72 238 0.9 2.6 0.00 0.00 0.00 88 1014.8
20260507074634 72 221 0.9 1.7 0.00 0.00 0.00 87 1014.8
20260507074134 73 227 0.9 1.7 0.00 0.00 0.00 87 1014.9
20260507073634 73 243 0.9 1.7 0.00 0.00 0.00 86 1015.0
20260507073134 73 243 0.0 1.7 0.00 0.00 0.00 86 1015.2
20260507072634 73 244 0.9 2.6 0.00 0.00 0.00 86 1015.1
20260507072134 73 242 1.7 3.5 0.00 0.00 0.00 86 1015.2
20260507071634 74 240 1.7 3.5 0.00 0.00 0.00 85 1015.2
20260507070634 74 239 1.7 3.5 0.00 0.00 0.00 85 1015.1
20260507065034 74 237 0.9 2.6 0.00 0.00 0.00 84 1015.2
20260507064534 74 231 0.9 1.7 0.00 0.00 0.00 84 1015.2
20260507063504 74 222 0.9 2.6 0.00 0.00 0.00 83 1015.3
20260507062434 74 242 1.7 2.6 0.00 0.00 0.00 82 1015.5
20260507061935 74 237 1.7 3.5 0.00 0.00 0.00 82 1015.4
20260507061404 74 229 0.9 3.5 0.00 0.00 0.00 81 1015.5
20260507060834 74 234 0.9 2.6 0.00 0.00 0.00 80 1015.8
20260507060334 74 241 1.7 5.2 0.00 0.00 0.00 79 1015.7
20260507055334 74 236 1.7 3.5 0.00 0.00 0.00 77 1015.6
20260507055005 75 206 0.9 2.6 0.00 0.00 0.00 76 1015.7
20260507054808 75 206 0.9 2.6 0.00 0.00 0.00 76 1015.7
20260507052734 75 196 0.9 2.6 0.00 0.00 0.00 74 1015.9
20260507052204 76 198 0.9 3.5 0.00 0.00 0.00 73 1016.0
20260507050604 76 202 0.9 2.6 0.00 0.00 0.00 75 1016.2
20260507045035 75 226 0.0 2.6 0.00 0.00 0.00 79 1016.4
20260507042434 75 221 0.9 0.9 0.00 0.00 0.00 82 1016.5
20260507041904 76 221 0.0 0.9 0.00 0.00 0.00 82 1016.5
20260507040334 77 216 0.0 0.9 0.00 0.00 0.00 81 1016.4
20260507035834 77 208 0.0 0.9 0.00 0.00 0.00 80 1016.5
20260507035334 77 207 0.0 0.9 0.00 0.00 0.00 80 1016.5
20260507033234 78 184 0.9 2.6 0.00 0.00 0.00 78 1016.4
20260507032704 78 194 0.9 4.3 0.00 0.00 0.00 78 1016.3
20260507032134 78 217 0.9 4.3 0.00 0.00 0.00 77 1016.2
20260507031634 78 234 1.7 6.1 0.00 0.00 0.00 77 1016.1
20260507031104 78 244 2.6 6.1 0.00 0.00 0.00 76 1016.1
20260507030604 78 244 2.6 6.1 0.00 0.00 0.00 75 1016.0
20260507030034 79 239 3.5 8.7 0.00 0.00 0.00 75 1015.8
20260507024934 79 236 4.3 8.7 0.00 0.00 0.00 74 1015.7
20260507024404 79 234 3.5 8.7 0.00 0.00 0.00 73 1015.7
20260507022234 80 246 2.6 6.1 0.00 0.00 0.00 74 1016.0
20260507021734 80 228 0.9 4.3 0.00 0.00 0.00 75 1015.9
20260507021234 81 198 1.7 5.2 0.00 0.00 0.00 74 1015.7
20260507020204 81 183 1.7 5.2 0.00 0.00 0.00 72 1015.7
20260507015634 82 124 1.7 5.2 0.00 0.00 0.00 68 1015.8
20260507015134 82 100 1.7 5.2 0.00 0.00 0.00 65 1015.7
20260507014104 82 153 0.9 5.2 0.00 0.00 0.00 64 1015.9
20260507013534 83 168 1.7 5.2 0.00 0.00 0.00 63 1015.9
20260507012007 83 136 2.6 7.8 0.00 0.00 0.00 63 1015.8
20260507010904 83 105 3.5 10.4 0.00 0.00 0.00 63 1015.7
20260507010333 84 114 2.6 8.7 0.00 0.00 0.00 63 1015.7
20260507005835 84 228 1.7 7.0 0.00 0.00 0.00 60 1015.8
20260507005306 84 235 2.6 7.0 0.00 0.00 0.00 60 1015.7
20260507004804 84 106 4.3 9.6 0.00 0.00 0.00 62 1015.5
20260507004234 84 100 8.7 14.8 0.00 0.00 0.00 62 1015.2
20260507003735 84 99 7.8 14.8 0.00 0.00 0.00 62 1015.1
20260507003234 84 101 4.3 14.8 0.00 0.00 0.00 62 1015.1
20260507002204 85 104 2.6 5.2 0.00 0.00 0.00 59 1014.9
20260507001634 86 105 1.7 5.2 0.00 0.00 0.00 58 1015.0
20260507001104 86 123 0.0 2.6 0.00 0.00 0.00 55 1014.8
20260507000604 87 154 0.0 0.9 0.00 0.00 0.00 54 1014.8
20260507000034 88 154 0.0 0.9 0.00 0.00 0.00 51 1014.7
20260506234933 89 170 0.0 1.7 0.00 0.00 0.00 49 1014.7
20260506234433 89 165 0.0 1.7 0.00 0.00 0.00 51 1014.6
20260506233904 90 153 0.9 1.7 0.00 0.00 0.00 48 1014.6
20260506233334 90 144 0.0 1.7 0.00 0.00 0.00 49 1014.6
20260506232833 90 126 0.0 0.9 0.00 0.00 0.00 49 1014.6
20260506232306 90 130 0.0 1.7 0.00 0.00 0.00 49 1014.6
20260506231305 90 112 0.9 1.7 0.00 0.00 0.00 47 1014.7
20260506230938 90 110 0.9 2.6 0.00 0.00 0.00 49 1014.7
20260506230806 90 110 0.9 2.6 0.00 0.00 0.00 49 1014.7
20260506230305 90 110 1.7 2.6 0.00 0.00 0.00 52 1014.6
20260506225734 90 105 1.7 3.5 0.00 0.00 0.00 50 1014.7
20260506225204 90 106 1.7 3.5 0.00 0.00 0.00 53 1014.6
20260506224704 90 107 1.7 2.6 0.00 0.00 0.00 52 1014.8
20260506224133 90 109 1.7 2.6 0.00 0.00 0.00 45 1014.8
20260506223634 91 111 1.7 2.6 0.00 0.00 0.00 49 1014.8
20260506223104 91 111 1.7 3.5 0.00 0.00 0.00 49 1014.7
20260506221434 91 103 2.6 5.2 0.00 0.00 0.00 49 1014.8
20260506220934 91 104 2.6 5.2 0.00 0.00 0.00 46 1014.8
20260506220434 91 105 2.6 5.2 0.00 0.00 0.00 46 1014.8
20260506215904 92 104 2.6 5.2 0.00 0.00 0.00 47 1014.9
20260506215334 92 105 2.6 6.1 0.00 0.00 0.00 47 1015.0
20260506214305 92 90 0.9 3.5 0.00 0.00 0.00 47 1015.1
20260506212734 92 104 2.6 5.2 0.00 0.00 0.00 50 1015.0
20260506212204 92 103 2.6 6.1 0.00 0.00 0.00 45 1015.0
20260506211636 92 97 2.6 6.1 0.00 0.00 0.00 48 1015.0
20260506211134 92 97 3.5 7.0 0.00 0.00 0.00 46 1014.9
20260506210604 92 101 3.5 7.0 0.00 0.00 0.00 46 1014.9
20260506210103 93 99 2.6 6.1 0.00 0.00 0.00 47 1015.0
20260506205534 93 105 3.5 7.0 0.00 0.00 0.00 44 1014.8
20260506204433 94 101 4.3 7.8 0.00 0.00 0.00 44 1014.8
20260506203904 94 102 3.5 7.8 0.00 0.00 0.00 46 1015.0
20260506203404 94 102 2.6 6.1 0.00 0.00 0.00 46 1015.0
20260506202834 95 100 2.6 6.1 0.00 0.00 0.00 45 1015.1
20260506201234 95 117 1.7 4.3 0.00 0.00 0.00 44 1015.1
20260506200204 94 97 3.5 6.1 0.00 0.00 0.00 45 1015.2
20260506195704 95 95 3.5 6.1 0.00 0.00 0.00 47 1015.1
20260506195133 95 92 1.7 5.2 0.00 0.00 0.00 46 1015.1
20260506194634 94 116 1.7 7.0 0.00 0.00 0.00 45 1015.2
20260506194103 94 110 3.5 7.0 0.00 0.00 0.00 45 1015.3
20260506193034 94 98 3.5 7.8 0.00 0.00 0.00 50 1015.4
20260506192534 94 102 2.6 7.8 0.00 0.00 0.00 48 1015.5
20260506192034 94 102 3.5 7.8 0.00 0.00 0.00 48 1015.6
20260506191534 94 102 4.3 7.8 0.00 0.00 0.00 49 1015.7
20260506185934 94 94 4.3 7.8 0.00 0.00 0.00 47 1016.0
20260506185433 94 99 3.5 7.8 0.00 0.00 0.00 50 1016.2
20260506184904 93 99 4.3 7.0 0.00 0.00 0.00 49 1016.2
20260506184404 92 96 4.3 7.0 0.00 0.00 0.00 50 1016.2
20260506181233 92 98 4.3 8.7 0.00 0.00 0.00 51 1016.6
20260506180204 91 101 3.5 7.8 0.00 0.00 0.00 53 1016.6
20260506175704 90 103 4.3 7.8 0.00 0.00 0.00 52 1016.7
20260506174603 91 98 4.3 7.8 0.00 0.00 0.00 54 1016.9
20260506174103 91 99 4.3 7.0 0.00 0.00 0.00 53 1017.0
20260506173533 91 100 4.3 7.8 0.00 0.00 0.00 55 1017.0
20260506173033 91 99 3.5 7.8 0.00 0.00 0.00 54 1017.0
20260506172534 91 101 3.5 7.0 0.00 0.00 0.00 55 1017.1
20260506171434 91 106 3.5 7.0 0.00 0.00 0.00 53 1017.2
20260506170904 91 101 3.5 7.0 0.00 0.00 0.00 56 1017.2
20260506170334 91 100 4.3 7.0 0.00 0.00 0.00 56 1017.3
20260506164734 90 103 4.3 7.8 0.00 0.00 0.00 57 1017.4
20260506164204 90 106 3.5 7.8 0.00 0.00 0.00 56 1017.4
20260506163704 90 110 2.6 7.8 0.00 0.00 0.00 56 1017.4
20260506162703 90 97 4.3 7.0 0.00 0.00 0.00 56 1017.4
20260506162134 90 107 2.6 7.0 0.00 0.00 0.00 56 1017.4
20260506161634 90 120 2.6 6.1 0.00 0.00 0.00 57 1017.6
20260506161104 90 114 3.5 8.7 0.00 0.00 0.00 56 1017.5
20260506160603 89 113 3.5 8.7 0.00 0.00 0.00 54 1017.4
20260506160034 90 106 2.6 7.0 0.00 0.00 0.00 56 1017.5
20260506155534 89 104 2.6 7.0 0.00 0.00 0.00 57 1017.4
20260506155004 89 105 2.6 6.1 0.00 0.00 0.00 58 1017.4
20260506153933 88 112 2.6 6.1 0.00 0.00 0.00 61 1017.6
20260506153549 88 99 2.6 8.7 0.00 0.00 0.00 63 1017.6
20260506153433 88 99 2.6 8.7 0.00 0.00 0.00 63 1017.6
20260506152933 87 104 2.6 8.7 0.00 0.00 0.00 64 1017.6
20260506152403 86 109 2.6 7.0 0.00 0.00 0.00 65 1017.7
20260506151834 85 131 1.7 7.0 0.00 0.00 0.00 67 1017.7
20260506150235 84 139 1.7 7.0 0.00 0.00 0.00 71 1017.4
20260506145734 84 119 1.7 6.1 0.00 0.00 0.00 73 1017.5
20260506145234 84 123 1.7 6.1 0.00 0.00 0.00 73 1017.5
20260506144733 84 135 1.7 5.2 0.00 0.00 0.00 75 1017.6
20260506144447 83 119 2.6 5.2 0.00 0.00 0.00 75 1017.7
20260506144204 83 119 2.6 5.2 0.00 0.00 0.00 75 1017.7
20260506143704 83 110 2.6 6.1 0.00 0.00 0.00 76 1017.7
20260506143204 82 116 1.7 6.1 0.00 0.00 0.00 77 1017.7
20260506142133 81 130 1.7 3.5 0.00 0.00 0.00 80 1017.7
20260506141633 80 134 1.7 6.1 0.00 0.00 0.00 80 1017.7
20260506141210 80 124 1.7 6.1 0.00 0.00 0.00 81 1017.7
20260506141134 80 124 1.7 6.1 0.00 0.00 0.00 81 1017.7
20260506140604 79 136 1.7 6.1 0.00 0.00 0.00 82 1017.6
20260506140033 78 160 1.7 7.0 0.00 0.00 0.00 83 1017.6
20260506135003 77 171 2.6 7.8 0.00 0.00 0.00 84 1017.6
20260506134503 77 169 1.7 7.8 0.00 0.00 0.00 85 1017.7
20260506133933 77 168 2.6 6.1 0.00 0.00 0.00 86 1017.6
20260506133404 77 173 2.6 6.1 0.00 0.00 0.00 86 1017.7
20260506132903 76 176 2.6 7.0 0.00 0.00 0.00 87 1017.6
20260506132334 76 174 1.7 7.0 0.00 0.00 0.00 87 1017.5
20260506131334 76 163 2.6 6.1 0.00 0.00 0.00 88 1017.2
20260506130334 75 147 1.7 6.1 0.00 0.00 0.00 89 1017.2
20260506125333 74 158 1.7 5.2 0.00 0.00 0.00 90 1017.1
20260506124833 74 164 1.7 5.2 0.00 0.00 0.00 91 1016.9
20260506123234 73 123 0.9 5.2 0.00 0.00 0.00 93 1016.9
20260506122734 73 128 0.9 5.2 0.00 0.00 0.00 93 1016.9
20260506121134 72 174 0.9 5.2 0.00 0.00 0.00 93 1016.9
20260506120603 72 129 0.9 3.5 0.00 0.00 0.00 93 1016.9
20260506120103 72 118 1.7 3.5 0.00 0.00 0.00 94 1016.8
20260506115034 71 134 0.9 4.3 0.00 0.00 0.00 94 1016.7